Eden Prairie, MN

4:43 PM CDT on August 24, 2016 (GMT -0500)
Flying Cloud

Weather History for KFCM - May, 2014

Change the Weather History Date:

Sunday, May 18, 2014

  Actual Average Record
Temperature  
Mean Temperature 59 °F -  
Max Temperature 73 °F 66 °F 93 °F (2012)
Min Temperature 46 °F 47 °F 39 °F (2015)
Degree Days  
Heating Degree Days 6    
Growing Degree Days 9 (Base 50)    
Moisture  
Dew Point 35 °F    
Average Humidity 38    
Maximum Humidity 61    
Minimum Humidity 25    
Precipitation  
Precipitation 0.00 in - - ()
Sea Level Pressure  
Sea Level Pressure 30.03 in    
Wind  
Wind Speed 9 mph (SSW)    
Max Wind Speed 20 mph    
Max Gust Speed 29 mph    
Visibility 10 miles    
Events      
Averages and records for this station are not official NWS values.
T = Trace of Precipitation, MM = Missing Value Source: NWS Daily Summary

Daily Weather History Graph

Daily Weather History Graph

Search for Another Location

Airport or City:

Trip Planner

Search our weather history database for the weather conditions in past years. The results will help you decide how hot, cold, wet, or windy it might be!

Date:

Astronomy

May. 18, 2014 Rise Set
Actual Time 5:42 AM CDT 8:39 PM CDT
Civil Twilight 5:07 AM CDT 9:13 PM CDT
Nautical Twilight 4:23 AM CDT 9:57 PM CDT
Astronomical Twilight 3:31 AM CDT 10:50 PM CDT
Moon No Moon Rise 9:33 AM CDT (5/18)
Length of Visible Light 16h 06m
Length of Day
14h 57m
Waning Gibbous, 81% of the Moon is Illuminated
May 18
Waning Gibbous
May 21
Last Quarter
May 28
New
Jun 5
First Quarter
Jun 12
Full

Hourly Weather History & Observations

Time (CDT) Temp. Dew Point Humidity Pressure Visibility Wind Dir Wind Speed Gust Speed Precip Events Conditions
12:53 AM 53.1 °F 30.0 °F 41% 30.02 in 10.0 mi SW 5.8 mph - N/A   Clear
1:53 AM 53.1 °F 30.9 °F 43% 30.02 in 10.0 mi SW 6.9 mph - N/A   Partly Cloudy
2:53 AM 50.0 °F 33.1 °F 52% 30.03 in 10.0 mi WSW 8.1 mph - N/A   Clear
3:53 AM 48.9 °F 35.1 °F 59% 30.04 in 10.0 mi SW 6.9 mph - N/A   Clear
4:53 AM 48.9 °F 35.1 °F 59% 30.04 in 10.0 mi WSW 4.6 mph - N/A   Clear
5:53 AM 46.9 °F 34.0 °F 61% 30.06 in 10.0 mi WSW 4.6 mph - N/A   Clear
6:53 AM 48.9 °F 36.0 °F 61% 30.07 in 10.0 mi SW 4.6 mph - N/A   Clear
7:53 AM 53.1 °F 37.0 °F 55% 30.08 in 10.0 mi SW 8.1 mph - N/A   Clear
8:53 AM 57.9 °F 39.9 °F 51% 30.08 in 10.0 mi SW 6.9 mph - N/A   Clear
9:53 AM 64.0 °F 41.0 °F 43% 30.08 in 10.0 mi SW 10.4 mph - N/A   Clear
10:53 AM 68.0 °F 41.0 °F 37% 30.07 in 10.0 mi SW 9.2 mph - N/A   Clear
11:53 AM 70.0 °F 35.1 °F 28% 30.06 in 10.0 mi South 17.3 mph 28.8 mph N/A   Partly Cloudy
12:09 PM 71.6 °F 33.8 °F 25% 30.05 in 1.5 mi SW 12.7 mph 25.3 mph N/A   Haze
12:24 PM 69.8 °F 33.8 °F 27% 30.06 in 10.0 mi SSW 17.3 mph 25.3 mph N/A   Partly Cloudy
12:53 PM 72.0 °F 36.0 °F 27% 30.04 in 10.0 mi South 19.6 mph 26.5 mph N/A   Scattered Clouds
1:53 PM 71.1 °F 36.0 °F 28% 30.03 in 10.0 mi South 16.1 mph 23.0 mph N/A   Clear
2:53 PM 71.1 °F 35.1 °F 27% 30.02 in 10.0 mi South 17.3 mph 26.5 mph N/A   Partly Cloudy
3:53 PM 71.1 °F 35.1 °F 27% 30.00 in 10.0 mi SSW 15.0 mph 21.9 mph N/A   Partly Cloudy
4:53 PM 71.1 °F 35.1 °F 27% 29.99 in 10.0 mi South 12.7 mph - N/A   Partly Cloudy
5:53 PM 72.0 °F 34.0 °F 25% 29.98 in 10.0 mi South 15.0 mph 24.2 mph N/A   Clear
6:53 PM 71.1 °F 34.0 °F 26% 29.97 in 10.0 mi South 12.7 mph - N/A   Clear
7:53 PM 68.0 °F 34.0 °F 28% 29.96 in 10.0 mi South 11.5 mph - N/A   Clear
8:53 PM 66.0 °F 34.0 °F 30% 29.97 in 10.0 mi South 11.5 mph - N/A   Clear
9:53 PM 64.0 °F 36.0 °F 35% 29.97 in 10.0 mi SSE 10.4 mph - N/A   Clear
10:53 PM 63.0 °F 36.0 °F 37% 29.99 in 10.0 mi South 12.7 mph - N/A   Clear
11:53 PM 63.0 °F 37.0 °F 38% 29.99 in 10.0 mi South 9.2 mph - N/A   Partly Cloudy